Wind_Speed
13 12 10 11 10 11 11 12 13 13 13 12 12 12 12 13 12 11 14 15 18 19 21 23 26 28 29 32 31 30 29 31 29 26 21 24 24 24 22 23 22 21 22 20 18
15 14 11 12 11 10 11 12 13 13 13 11 12 14 14 13 12 14 16 18 18 20 22 25 26 27 29 30 29 28 29 30 29 28 25 23 24 25 25 25 25 24 25 23 20
17 16 15 13 11 11 12 13 13 14 14 15 15 15 14 13 16 17 16 18 20 20 24 26 26 29 28 28 27 27 26 27 28 28 25 25 27 26 26 26 26 25 27 27 26
20 18 18 16 15 13 12 13 15 16 18 17 17 15 15 15 17 17 17 18 20 22 24 25 28 28 29 28 27 25 26 28 28 28 25 25 27 26 29 26 28 28 26 27 27
25 22 21 20 19 17 16 16 16 18 19 18 17 17 17 18 19 19 19 19 21 23 24 25 25 25 28 28 28 27 28 27 29 28 26 26 28 27 29 30 31 30 29 29 29
28 26 25 23 21 19 18 19 18 18 20 20 20 20 20 20 20 21 21 22 23 23 24 26 25 26 27 28 28 28 29 30 28 30 29 27 28 30 29 30 32 33 32 31 32
32 30 28 27 26 23 23 21 20 20 21 23 23 23 23 23 22 23 23 25 25 23 25 26 24 25 26 28 29 30 31 32 31 31 32 31 30 32 33 32 33 35 35 34 32
35 34 32 31 29 26 25 24 23 23 22 25 25 26 25 24 25 26 26 26 26 24 25 25 25 26 26 28 29 31 32 33 35 33 33 32 28 34 36 36 36 37 36 35 35
37 36 36 35 33 29 28 27 25 25 24 25 26 27 28 27 27 27 27 27 26 26 25 27 26 26 27 29 31 31 34 35 36 38 37 36 30 34 37 38 36 39 36 36 38
40 38 37 38 36 33 31 30 27 27 27 27 28 28 27 29 29 30 28 25 26 27 27 27 26 28 29 31 32 33 36 38 38 40 40 41 36 33 38 40 38 39 37 39 39
39 39 39 39 40 36 34 33 30 29 30 29 30 30 30 29 29 28 25 25 25 27 28 28 29 30 32 33 35 36 37 39 40 43 44 43 43 39 38 37 41 41 38 39 40
35 37 39 39 39 39 37 35 34 33 31 32 32 31 29 29 26 25 26 25 26 26 27 29 32 33 34 36 36 37 39 41 41 43 46 44 43 41 39 37 39 39 39 42 43
33 34 36 38 38 38 38 37 35 36 35 33 32 29 27 24 24 25 26 27 27 28 30 32 34 34 34 36 37 38 39 42 43 44 44 45 46 43 40 39 40 42 42 42 44
32 32 33 37 37 37 37 38 36 36 38 34 30 25 24 24 24 25 25 26 29 32 33 35 35 34 35 37 38 39 40 43 44 46 47 45 48 46 46 44 43 41 40 41 43
33 33 33 34 36 36 36 36 35 35 37 29 24 24 24 25 26 24 26 30 32 33 33 35 36 36 36 37 39 40 41 44 45 45 45 44 47 47 47 43 39 38 39 41 44
36 34 33 33 34 35 35 34 34 33 32 27 25 25 26 25 25 28 33 34 34 35 35 37 36 36 38 37 39 41 42 44 43 43 45 47 47 45 46 41 37 39 43 47 49
39 38 35 34 35 35 35 34 34 33 28 29 28 28 28 28 28 31 34 36 36 36 38 38 37 37 37 38 39 41 42 41 43 44 46 46 47 44 40 39 41 47 53 53 51
42 41 38 38 38 37 35 35 37 33 30 31 31 32 32 32 32 34 35 37 37 38 40 38 36 36 36 37 40 38 38 39 42 42 45 43 46 42 42 49 53 56 55 57 61
49 44 41 41 41 40 38 41 36 33 33 32 34 37 37 34 35 36 37 39 40 41 39 37 36 35 36 36 35 37 37 38 40 42 44 45 47 43 48 56 59 63 64 66 67
52 50 46 44 43 44 44 43 40 36 36 37 37 37 38 38 38 39 40 42 41 41 39 36 36 35 34 32 33 35 36 38 41 45 45 44 47 50 54 59 65 68 73 73 69
53 50 46 49 47 50 50 44 40 40 39 39 39 41 41 41 41 42 43 41 42 39 36 35 36 32 28 28 31 34 35 36 40 47 50 51 48 53 60 66 71 77 76 66 55
57 53 45 50 50 48 47 44 41 39 41 41 41 42 44 43 43 45 42 42 40 35 33 33 34 26 25 28 31 33 34 35 39 46 51 55 56 57 64 71 74 70 64 55 52
53 51 50 51 49 46 44 44 45 44 45 46 45 46 46 46 47 45 43 40 36 33 32 30 26 24 27 30 34 33 31 37 44 48 49 58 61 63 70 73 63 61 60 59 54
54 55 51 53 52 52 50 48 48 49 49 49 49 49 49 50 47 43 39 35 34 32 28 28 23 23 26 30 32 31 34 41 47 52 55 54 64 67 72 64 58 55 55 54 51
69 60 54 54 53 53 54 53 53 51 51 50 48 47 46 46 42 38 35 35 32 27 27 26 23 25 25 30 31 34 37 43 47 51 55 56 65 70 60 52 49 52 54 52 47
77 71 60 57 58 58 58 56 55 56 56 53 48 44 45 43 39 36 36 34 30 28 28 24 25 26 29 28 33 33 38 42 46 49 52 61 68 54 47 47 49 48 51 52 47
73 72 73 65 63 62 63 57 56 56 56 54 47 47 45 41 37 37 35 31 30 30 28 26 26 28 31 29 35 36 37 39 43 47 54 63 56 43 40 43 46 46 48 50 48
Wind_Direction
245 255 258 258 246 242 239 230 231 232 233 237 246 257 268 271 276 278 296 294 301 311 315 321 326 327 328 329 332 332 334 334 324 326 328 329 330 327 331 331 332 334 333 338 339
247 255 257 257 247 235 237 235 235 240 246 249 252 265 267 268 269 283 291 294 303 308 315 321 324 325 327 330 330 334 332 331 325 321 326 330 329 327 328 329 326 329 325 327 329
244 249 249 248 249 246 240 243 245 250 249 249 255 260 261 260 280 293 297 297 301 307 315 317 323 323 326 325 328 333 330 325 322 318 319 323 326 327 323 324 323 324 320 321 321
244 246 251 247 254 255 251 254 256 257 257 255 256 252 256 272 283 292 296 294 300 305 312 317 323 324 324 324 325 329 324 320 318 315 317 320 324 323 321 319 319 320 316 313 313
243 245 244 250 251 256 258 258 255 258 258 257 252 254 260 270 284 292 294 297 302 308 309 316 319 323 321 322 322 322 323 322 315 314 313 316 319 319 317 317 318 315 313 312 310
245 243 245 246 252 258 259 260 260 256 260 258 253 254 261 272 283 287 292 296 303 308 309 318 319 320 319 320 319 319 319 318 313 311 310 312 314 313 312 312 312 312 311 311 308
249 247 247 250 253 253 259 262 262 262 259 257 253 254 261 271 281 289 294 298 305 307 310 315 313 316 317 319 316 315 315 313 313 311 309 308 309 309 306 307 308 306 308 308 303
250 250 250 251 253 253 256 259 263 264 260 258 258 258 263 274 284 290 293 299 301 302 309 311 310 312 311 313 312 313 310 312 312 309 306 305 307 302 304 303 305 303 303 303 301
252 250 251 251 253 253 255 258 261 263 259 259 261 262 266 275 280 285 293 300 300 304 307 311 309 309 305 308 313 311 309 309 308 306 304 304 304 301 301 300 300 299 301 298 296
252 252 251 251 251 254 256 258 259 262 262 262 263 265 269 276 281 286 294 297 302 304 307 309 307 308 306 305 308 309 309 307 305 304 305 304 303 301 297 301 299 296 298 296 295
255 251 252 251 251 251 253 256 258 259 262 263 265 266 271 278 284 289 292 296 300 303 306 310 309 308 307 306 306 307 309 308 305 305 303 302 305 304 301 299 299 301 299 295 292
255 252 251 252 250 251 253 255 258 260 261 265 270 273 277 281 286 288 291 295 298 301 307 310 308 306 308 306 305 305 306 306 305 302 301 302 305 304 304 302 296 293 291 290 288
258 254 253 252 252 252 253 255 258 261 263 266 269 274 279 280 285 287 291 297 297 300 305 310 309 305 305 305 304 305 305 304 302 301 300 303 302 303 303 298 293 292 292 289 287
256 253 251 252 251 252 254 255 257 261 264 266 270 271 270 274 281 288 293 297 299 302 303 307 305 303 303 303 304 304 303 301 302 303 303 304 302 303 303 298 298 297 294 289 288
253 254 252 252 253 252 253 256 258 260 265 266 264 262 268 279 285 288 294 300 301 300 301 305 302 302 303 303 304 303 302 303 302 303 305 304 302 303 300 301 304 300 299 299 298
257 254 252 253 253 253 252 253 255 256 258 260 261 266 273 280 285 291 296 300 300 301 300 302 301 302 303 304 303 302 303 302 303 304 305 304 304 307 306 309 305 305 303 300 300
257 255 253 251 252 252 252 252 253 252 258 257 260 264 271 280 287 296 299 299 301 301 301 299 300 301 303 302 302 304 304 304 305 308 309 309 308 310 312 308 306 304 302 301 304
251 254 252 251 249 248 248 250 252 257 255 258 262 264 269 277 288 297 299 299 299 298 297 297 298 300 302 303 303 304 304 306 308 312 310 313 311 311 311 310 309 305 305 305 305
248 249 249 248 247 246 247 249 253 253 256 256 259 263 269 279 289 295 298 298 297 296 294 294 297 298 302 303 304 306 308 310 311 312 310 313 308 310 311 308 306 304 302 302 302
250 247 244 244 244 245 245 249 252 256 259 260 263 266 271 281 287 293 295 297 294 294 291 294 295 300 301 303 305 307 311 315 313 309 308 314 310 308 308 306 306 305 305 309 310
250 246 246 244 242 244 247 251 255 258 259 260 265 270 274 281 286 288 292 294 293 290 290 293 296 298 298 305 307 309 313 315 313 307 307 307 313 313 309 310 309 310 314 312 305
253 249 240 246 248 249 251 255 257 257 260 263 266 271 275 279 282 284 290 291 288 285 287 291 293 296 302 308 308 310 311 311 306 304 307 308 312 310 313 311 316 317 314 312 306
251 249 242 243 247 251 253 256 258 262 265 266 267 269 274 276 277 283 286 284 282 281 287 288 287 298 308 308 311 315 307 304 302 303 310 308 313 316 313 315 318 317 314 310 304
248 250 244 243 247 248 252 257 260 263 265 268 269 268 271 272 274 281 279 277 274 278 278 278 291 303 305 312 317 306 303 299 300 304 306 314 312 313 315 318 321 322 321 311 306
248 248 248 248 250 252 254 257 259 264 266 268 267 265 264 267 273 275 273 271 269 267 272 280 290 302 305 318 313 303 301 301 304 308 311 313 314 317 318 322 324 328 334 335 318
247 249 252 253 250 250 252 257 261 265 267 268 266 258 261 266 266 263 264 263 261 265 268 276 291 298 308 312 303 307 301 304 305 307 311 314 317 318 321 323 325 327 332 336 340
244 246 248 252 252 253 255 259 261 261 262 265 257 254 259 259 256 258 256 257 262 259 262 280 287 296 308 299 304 311 306 305 309 309 312 316 318 318 319 324 326 325 332 333 335
Height
5828 5830 5829 5830 5828 5830 5831 5831 5832 5833 5833 5834 5835 5836 5836 5835 5835 5835 5835 5835 5833 5832 5831 5829 5826 5823 5819 5816 5813 5810 5808 5806 5804 5801 5799 5797 5794 5791 5788 5786 5784 5782 5780 5777 5775
5825 5826 5827 5828 5828 5826 5828 5829 5829 5830 5831 5831 5832 5833 5832 5832 5832 5831 5831 5831 5830 5829 5827 5825 5823 5819 5816 5813 5810 5807 5805 5803 5801 5799 5797 5795 5792 5788 5785 5783 5780 5778 5776 5774 5771
5821 5823 5824 5824 5825 5825 5825 5826 5826 5827 5828 5828 5828 5829 5830 5829 5831 5829 5827 5827 5826 5824 5823 5821 5819 5816 5813 5809 5806 5803 5801 5799 5797 5795 5793 5791 5788 5785 5782 5779 5777 5774 5770 5768 5766
5816 5819 5821 5820 5821 5822 5821 5822 5822 5823 5825 5824 5825 5825 5826 5826 5828 5825 5823 5822 5821 5821 5819 5817 5815 5813 5810 5806 5803 5800 5796 5795 5793 5790 5789 5787 5785 5782 5778 5776 5772 5770 5767 5764 5761
5811 5813 5815 5816 5816 5816 5818 5817 5817 5818 5820 5821 5821 5822 5822 5822 5823 5822 5820 5818 5816 5816 5815 5813 5810 5808 5806 5803 5799 5796 5794 5791 5789 5787 5785 5783 5782 5779 5773 5770 5768 5765 5762 5760 5757
5806 5807 5809 5810 5811 5812 5813 5814 5814 5814 5815 5816 5817 5816 5817 5819 5818 5817 5815 5815 5812 5812 5810 5809 5807 5805 5802 5799 5796 5793 5790 5788 5784 5783 5781 5779 5776 5774 5770 5765 5761 5758 5755 5753 5750
5801 5802 5803 5805 5806 5806 5808 5809 5809 5810 5811 5811 5812 5812 5812 5813 5812 5812 5811 5810 5809 5807 5806 5804 5802 5800 5798 5795 5792 5789 5787 5783 5780 5777 5776 5774 5772 5767 5763 5760 5755 5750 5748 5746 5743
5793 5795 5797 5798 5800 5800 5802 5802 5803 5804 5805 5806 5806 5807 5806 5807 5808 5807 5806 5805 5804 5802 5800 5798 5797 5795 5792 5789 5787 5785 5782 5779 5776 5771 5769 5767 5768 5761 5758 5754 5750 5744 5742 5739 5735
5785 5787 5790 5792 5793 5794 5795 5796 5797 5798 5799 5800 5801 5802 5801 5802 5801 5800 5801 5800 5799 5797 5794 5793 5791 5789 5787 5785 5783 5779 5776 5774 5770 5766 5763 5762 5762 5756 5750 5745 5743 5737 5734 5730 5726
5777 5779 5781 5784 5785 5787 5789 5790 5790 5792 5793 5794 5794 5797 5797 5796 5796 5795 5794 5794 5793 5792 5789 5787 5785 5782 5780 5778 5777 5773 5771 5767 5763 5760 5758 5753 5752 5749 5742 5738 5734 5729 5727 5722 5718
5768 5770 5773 5775 5777 5779 5781 5783 5785 5786 5786 5787 5789 5789 5788 5789 5789 5789 5788 5788 5787 5786 5784 5781 5780 5776 5774 5772 5769 5767 5764 5761 5756 5752 5748 5745 5742 5739 5735 5730 5724 5720 5718 5712 5708
5758 5761 5763 5766 5769 5771 5773 5774 5776 5778 5779 5780 5781 5782 5783 5782 5782 5783 5783 5782 5780 5778 5776 5775 5772 5769 5767 5764 5762 5759 5756 5752 5748 5744 5739 5737 5733 5730 5726 5722 5716 5711 5707 5701 5696
5750 5752 5755 5759 5761 5763 5765 5766 5768 5769 5770 5773 5774 5775 5776 5777 5776 5776 5776 5775 5773 5771 5769 5767 5765 5761 5759 5756 5753 5750 5747 5743 5739 5736 5732 5729 5724 5721 5718 5712 5705 5700 5695 5690 5683
5742 5744 5746 5750 5754 5754 5756 5758 5759 5761 5762 5766 5768 5769 5769 5769 5770 5769 5768 5768 5766 5764 5762 5760 5756 5753 5750 5747 5745 5742 5738 5733 5729 5726 5724 5721 5714 5708 5704 5698 5695 5690 5684 5678 5673
5732 5736 5738 5741 5744 5746 5748 5750 5752 5754 5753 5759 5760 5761 5762 5763 5762 5762 5760 5759 5757 5756 5754 5752 5748 5745 5742 5739 5736 5734 5729 5725 5721 5717 5714 5710 5703 5699 5691 5689 5685 5678 5672 5667 5662
5724 5727 5730 5733 5735 5738 5740 5742 5744 5747 5746 5750 5752 5753 5753 5754 5754 5754 5754 5752 5749 5747 5745 5742 5739 5736 5734 5731 5727 5724 5721 5717 5713 5709 5705 5700 5693 5689 5680 5678 5673 5668 5663 5658 5652
5716 5719 5722 5724 5727 5730 5732 5734 5736 5736 5742 5743 5744 5744 5745 5745 5745 5745 5744 5742 5741 5739 5736 5734 5731 5728 5725 5722 5718 5714 5711 5708 5705 5701 5696 5689 5682 5676 5671 5664 5662 5658 5651 5645 5641
5706 5710 5713 5716 5718 5721 5723 5725 5725 5731 5734 5734 5736 5736 5736 5737 5737 5736 5736 5734 5732 5730 5727 5724 5722 5720 5718 5715 5710 5706 5703 5701 5695 5692 5687 5681 5673 5668 5663 5655 5648 5643 5640 5634 5630
5696 5699 5703 5706 5709 5711 5715 5713 5719 5723 5724 5726 5726 5726 5727 5728 5730 5728 5727 5726 5724 5722 5720 5716 5714 5712 5710 5705 5703 5698 5695 5692 5687 5682 5676 5673 5663 5660 5652 5646 5635 5629 5624 5620 5616
5684 5687 5691 5694 5698 5701 5704 5705 5709 5714 5715 5716 5717 5719 5719 5720 5720 5719 5717 5717 5714 5712 5709 5707 5705 5704 5701 5697 5693 5689 5687 5683 5676 5669 5665 5664 5654 5648 5642 5632 5624 5614 5607 5602 5594
5672 5674 5681 5683 5687 5690 5690 5697 5702 5704 5705 5707 5708 5708 5710 5710 5710 5709 5708 5707 5705 5702 5700 5698 5698 5697 5693 5689 5684 5682 5678 5673 5667 5659 5652 5649 5649 5638 5625 5616 5606 5600 5592 5583 5576
5659 5664 5669 5672 5675 5678 5683 5689 5693 5693 5694 5697 5698 5699 5699 5700 5699 5698 5698 5696 5695 5693 5691 5690 5689 5688 5685 5680 5676 5674 5670 5665 5658 5652 5644 5634 5634 5629 5616 5603 5592 5585 5575 5569 5562
5646 5651 5655 5660 5662 5668 5673 5676 5679 5682 5684 5685 5687 5687 5688 5688 5689 5688 5688 5686 5685 5683 5682 5683 5683 5679 5677 5674 5669 5665 5661 5655 5648 5641 5639 5626 5621 5610 5603 5594 5582 5570 5563 5555 5548
5634 5637 5642 5647 5652 5655 5660 5666 5668 5670 5672 5674 5675 5675 5676 5676 5676 5677 5677 5676 5675 5674 5673 5675 5674 5671 5669 5665 5660 5656 5652 5646 5639 5632 5625 5622 5607 5603 5592 5581 5573 5563 5552 5541 5533
5619 5622 5632 5635 5640 5647 5649 5652 5654 5657 5660 5662 5663 5664 5664 5664 5664 5665 5667 5667 5665 5665 5666 5665 5665 5663 5659 5656 5652 5648 5643 5637 5630 5621 5612 5609 5600 5588 5577 5570 5562 5553 5542 5530 5522
5602 5609 5617 5624 5627 5631 5634 5639 5642 5644 5647 5649 5651 5651 5651 5652 5654 5654 5656 5656 5656 5657 5657 5656 5655 5653 5650 5646 5643 5640 5635 5629 5621 5613 5606 5596 5588 5578 5569 5562 5555 5545 5534 5523 5515
5588 5596 5603 5605 5611 5616 5622 5627 5629 5630 5633 5636 5638 5637 5639 5641 5642 5644 5645 5646 5648 5649 5648 5647 5645 5643 5642 5639 5634 5632 5627 5620 5614 5606 5598 5588 5578 5569 5564 5558 5550 5540 5529 5518 5509